TimeEDT,TemperatureF,Dew PointF,Humidity,Sea Level PressureIn,VisibilityMPH,Wind Direction,Wind SpeedMPH,Gust SpeedMPH,PrecipitationIn,Events,Conditions,WindDirDegrees,DateUTC
12:15 AM,64.4,57.2,77,29.84,10.0,Calm,Calm,-,N/A,,Clear,0,2013-07-21 04:15:00
12:35 AM,64.4,57.2,77,29.85,10.0,Calm,Calm,-,N/A,,Partly Cloudy,0,2013-07-21 04:35:00
12:55 AM,64.4,57.2,77,29.86,10.0,Calm,Calm,-,N/A,,Clear,0,2013-07-21 04:55:00
1:15 AM,64.4,57.2,77,29.86,10.0,Calm,Calm,-,N/A,,Clear,0,2013-07-21 05:15:00
1:35 AM,62.6,55.4,77,29.86,10.0,Calm,Calm,-,N/A,,Partly Cloudy,0,2013-07-21 05:35:00
1:55 AM,64.4,57.2,77,29.87,10.0,Calm,Calm,-,N/A,,Clear,0,2013-07-21 05:55:00
2:15 AM,62.6,55.4,77,29.86,10.0,Calm,Calm,-,N/A,,Clear,0,2013-07-21 06:15:00
2:35 AM,62.6,55.4,77,29.87,10.0,SSW,3.5,-,N/A,,Clear,200,2013-07-21 06:35:00
2:55 AM,62.6,55.4,77,29.87,10.0,Calm,Calm,-,N/A,,Clear,0,2013-07-21 06:55:00
3:15 AM,62.6,55.4,77,29.87,10.0,Calm,Calm,-,N/A,,Clear,0,2013-07-21 07:15:00
3:35 AM,60.8,55.4,82,29.87,7.0,Calm,Calm,-,N/A,,Clear,0,2013-07-21 07:35:00
3:55 AM,62.6,55.4,77,29.88,10.0,Calm,Calm,-,N/A,,Clear,0,2013-07-21 07:55:00
4:15 AM,60.8,55.4,82,29.88,10.0,Calm,Calm,-,N/A,,Partly Cloudy,0,2013-07-21 08:15:00
4:35 AM,60.8,53.6,77,29.88,1.5,Calm,Calm,-,N/A,,Clear,0,2013-07-21 08:35:00
4:55 AM,60.8,53.6,77,29.89,4.0,Calm,Calm,-,N/A,,Clear,0,2013-07-21 08:55:00
5:15 AM,59.0,53.6,82,29.90,0.5,SSW,3.5,-,N/A,,Mostly Cloudy,200,2013-07-21 09:15:00
5:35 AM,59.0,53.6,82,29.90,0.2,Calm,Calm,-,N/A,,Overcast,0,2013-07-21 09:35:00
5:55 AM,59.0,53.6,82,29.91,1.0,SSW,3.5,-,N/A,,Mostly Cloudy,200,2013-07-21 09:55:00
6:15 AM,60.8,53.6,77,29.92,0.5,SSW,3.5,-,N/A,,Overcast,200,2013-07-21 10:15:00
6:35 AM,60.8,55.4,82,29.92,0.2,Calm,Calm,-,N/A,,Overcast,0,2013-07-21 10:35:00
6:55 AM,60.8,55.4,82,29.93,1.8,Calm,Calm,-,N/A,,Overcast,0,2013-07-21 10:55:00
7:15 AM,62.6,55.4,77,29.93,10.0,Calm,Calm,-,N/A,,Partly Cloudy,0,2013-07-21 11:15:00
7:35 AM,64.4,57.2,77,29.94,10.0,Calm,Calm,-,N/A,,Clear,0,2013-07-21 11:35:00
7:55 AM,64.4,57.2,77,29.94,10.0,Calm,Calm,-,N/A,,Clear,0,2013-07-21 11:55:00
8:15 AM,66.2,57.2,73,29.94,10.0,Calm,Calm,-,N/A,,Clear,0,2013-07-21 12:15:00
8:35 AM,69.8,57.2,64,29.94,10.0,Calm,Calm,-,N/A,,Clear,0,2013-07-21 12:35:00
8:55 AM,71.6,60.8,69,29.95,10.0,Calm,Calm,-,N/A,,Clear,0,2013-07-21 12:55:00
9:15 AM,73.4,60.8,65,29.95,10.0,Calm,Calm,-,N/A,,Clear,0,2013-07-21 13:15:00
9:35 AM,73.4,60.8,65,29.94,10.0,Calm,Calm,-,N/A,,Clear,0,2013-07-21 13:35:00
9:55 AM,75.2,60.8,61,29.95,10.0,Calm,Calm,-,N/A,,Clear,0,2013-07-21 13:55:00
10:15 AM,75.2,59.0,57,29.94,10.0,NE,3.5,-,N/A,,Clear,40,2013-07-21 14:15:00
10:35 AM,75.2,59.0,57,29.95,10.0,Calm,Calm,-,N/A,,Clear,0,2013-07-21 14:35:00
10:55 AM,77.0,59.0,54,29.95,10.0,North,3.5,-,N/A,,Clear,350,2013-07-21 14:55:00
11:15 AM,78.8,59.0,51,29.95,10.0,North,4.6,-,N/A,,Clear,10,2013-07-21 15:15:00
11:35 AM,78.8,59.0,51,29.95,10.0,Calm,Calm,-,N/A,,Scattered Clouds,0,2013-07-21 15:35:00
11:55 AM,78.8,59.0,51,29.96,10.0,Calm,Calm,-,N/A,,Mostly Cloudy,0,2013-07-21 15:55:00
12:15 PM,78.8,57.2,47,29.96,10.0,WNW,5.8,-,N/A,,Mostly Cloudy,300,2013-07-21 16:15:00
12:35 PM,78.8,57.2,47,29.96,10.0,NE,3.5,-,N/A,,Partly Cloudy,50,2013-07-21 16:35:00
1:15 PM,78.8,57.2,47,29.95,10.0,NNE,5.8,-,N/A,,Scattered Clouds,20,2013-07-21 17:15:00
1:35 PM,80.6,57.2,45,29.95,10.0,Calm,Calm,-,N/A,,Scattered Clouds,0,2013-07-21 17:35:00
1:55 PM,80.6,57.2,45,29.94,10.0,SSW,3.5,-,N/A,,Mostly Cloudy,210,2013-07-21 17:55:00
2:15 PM,80.6,60.8,51,29.95,10.0,Calm,Calm,-,N/A,,Mostly Cloudy,0,2013-07-21 18:15:00
2:35 PM,80.6,59.0,48,29.95,10.0,NNW,4.6,-,N/A,,Overcast,330,2013-07-21 18:35:00
2:55 PM,78.8,59.0,51,29.94,10.0,Calm,Calm,-,N/A,,Overcast,0,2013-07-21 18:55:00
3:15 PM,80.6,59.0,48,29.94,10.0,Calm,Calm,-,N/A,,Scattered Clouds,0,2013-07-21 19:15:00
3:35 PM,80.6,59.0,48,29.94,10.0,West,4.6,-,N/A,,Clear,260,2013-07-21 19:35:00
3:55 PM,80.6,57.2,45,29.94,10.0,SSW,4.6,-,N/A,,Scattered Clouds,210,2013-07-21 19:55:00
4:15 PM,80.6,59.0,48,29.94,10.0,Calm,Calm,-,N/A,,Mostly Cloudy,0,2013-07-21 20:15:00
4:35 PM,80.6,59.0,48,29.94,10.0,Calm,Calm,-,N/A,,Overcast,0,2013-07-21 20:35:00
4:55 PM,82.4,59.0,45,29.93,10.0,Calm,Calm,-,N/A,,Scattered Clouds,0,2013-07-21 20:55:00
5:15 PM,82.4,59.0,45,29.93,10.0,NW,5.8,-,N/A,,Partly Cloudy,320,2013-07-21 21:15:00
5:35 PM,82.4,59.0,45,29.93,10.0,NNW,4.6,-,N/A,,Clear,330,2013-07-21 21:35:00
5:55 PM,82.4,59.0,45,29.93,10.0,NNW,8.1,-,N/A,,Clear,340,2013-07-21 21:55:00
6:15 PM,80.6,57.2,45,29.93,10.0,NW,4.6,-,N/A,,Partly Cloudy,310,2013-07-21 22:15:00
6:35 PM,80.6,59.0,48,29.93,10.0,NNW,3.5,-,N/A,,Clear,330,2013-07-21 22:35:00
6:55 PM,80.6,59.0,48,29.94,10.0,Calm,Calm,-,N/A,,Clear,0,2013-07-21 22:55:00
7:15 PM,80.6,60.8,51,29.94,10.0,Calm,Calm,-,N/A,,Clear,0,2013-07-21 23:15:00
7:35 PM,77.0,62.6,61,29.94,10.0,Calm,Calm,-,N/A,,Clear,0,2013-07-21 23:35:00
7:55 PM,75.2,62.6,65,29.94,10.0,Calm,Calm,-,N/A,,Clear,0,2013-07-21 23:55:00
8:15 PM,73.4,60.8,65,29.95,10.0,Calm,Calm,-,N/A,,Clear,0,2013-07-22 00:15:00
8:35 PM,71.6,60.8,69,29.95,10.0,Calm,Calm,-,N/A,,Clear,0,2013-07-22 00:35:00
8:55 PM,69.8,60.8,73,29.96,10.0,Calm,Calm,-,N/A,,Clear,0,2013-07-22 00:55:00
9:15 PM,69.8,59.0,68,29.97,10.0,Calm,Calm,-,N/A,,Clear,0,2013-07-22 01:15:00
9:35 PM,68.0,57.2,68,29.98,10.0,Calm,Calm,-,N/A,,Clear,0,2013-07-22 01:35:00
9:55 PM,66.2,57.2,73,29.98,10.0,Calm,Calm,-,N/A,,Clear,0,2013-07-22 01:55:00
10:15 PM,66.2,57.2,73,29.99,10.0,Calm,Calm,-,N/A,,Clear,0,2013-07-22 02:15:00
10:35 PM,66.2,57.2,73,29.99,10.0,Calm,Calm,-,N/A,,Clear,0,2013-07-22 02:35:00
10:55 PM,64.4,57.2,77,29.98,10.0,Calm,Calm,-,N/A,,Clear,0,2013-07-22 02:55:00
11:35 PM,64.4,57.2,77,29.99,10.0,Calm,Calm,-,N/A,,Clear,0,2013-07-22 03:35:00
11:55 PM,64.4,57.2,77,30.00,10.0,Calm,Calm,-,N/A,,Partly Cloudy,0,2013-07-22 03:55:00